Location: Newark
(7.0858°N, 171.3717°E)
Time: 15:19:02
(UTC+00:00)

Vanguard 3 - Pass Details

Date: 04 December 2020
Orbit: 508 x 3262 km, 33.4° (Epoch: 14 January)

Event Time Altitude Azimuth Distance (km) Brightness Sun altitude
Exits shadow 17:44:23 - 256° (WSW) 4,571 10.5 -12.1°
Reaches altitude 10° 17:46:44 10° 246° (WSW) 4,286 10.4 -11.5°
Maximum altitude 17:55:19 21° 202° (SSW) 4,237 10.8 -9.5°
Drops below altitude 10° 18:06:52 10° 160° (SSE) 5,868 12.2 -6.9°
Sets 18:14:03 0° 146° (SE) 7,148 13.0 -5.2°
